User: anonymous   Login
Location: Unspecified
(45.7810°N, 0.0000°E)
Time: 07:33:27
(UTC+00:00)
Language:

ISS - Orbit

View from above orbital plane
View from above orbital plane
View from above satellite
View from above satellite

Ground track
Ground track

The orbit data is extracted from the following two-line orbital elements,

1 25544U 98067A   19236.27473932  .00016717  00000-0  10270-3 0  9049
2 25544  51.6449  23.5060 0007896 320.8831  39.1748 15.50437349 25811
Epoch (UTC): 24 August 2019 06:35:37
Eccentricity: 0.0007896
inclination: 51.6449°
perigee height: 410 km
apogee height: 421 km
right ascension of ascending node: 23.5060°
argument of perigee: 320.8831°
revolutions per day: 15.50437349
mean anomaly at epoch: 39.1748°
orbit number at epoch: 2581

The dashed part of the orbit path shows where the satellite is in the earth's shadow,  

DLR